Simultaneous Nadir Overpasses (SNOs) Predictions

Prediction of SNOs between AQUA and METOP-C Satellite Orbit:

Table of predicted SNOs for the next 14.0 days since TLE Epoch: 8/30/2019
Index Date (AQUA) Time (AQUA) Lat,Lon (AQUA) SZA (AQUA ) Date (METOP-C) Time (METOP-C) Lat,Lon (METOP-C) SZA (METOP-C ) Distance(km) Time Diff (sec)
1 09/02/2019 00:53:02 73.68, 161.27 65.59 09/02/2019 00:51:50 73.68, 161.07 65.60 6.20 72
2 09/02/2019 01:42:29 -73.78, -31.31 114.30 09/02/2019 01:42:30 -73.77, -31.38 114.30 2.71 1
3 09/02/2019 02:31:59 73.88, 136.10 65.83 09/02/2019 02:33:08 73.86, 136.16 65.79 3.26 69
4 09/04/2019 20:27:18 73.73,-132.41 66.67 09/04/2019 20:26:11 73.74,-132.38 66.68 1.19 67
5 09/04/2019 21:16:44 -73.78, 35.13 113.27 09/04/2019 21:16:52 -73.79, 35.07 113.26 2.08 8
6 09/04/2019 22:06:16 73.99,-157.70 66.97 09/04/2019 22:07:28 73.97,-157.17 66.92 16.46 72
7 09/07/2019 16:01:32 73.74, -65.99 67.72 09/07/2019 16:00:32 73.75, -65.95 67.73 1.62 60
8 09/07/2019 16:50:58 -73.79, 101.56 112.23 09/07/2019 16:51:13 -73.81, 101.52 112.20 2.61 15
9 09/07/2019 17:40:35 74.26, -91.88 68.29 09/07/2019 17:41:43 74.27, -90.00 68.25 56.61 68
10 09/10/2019 11:35:47 73.76, 0.41 68.79 09/10/2019 11:34:54 73.76, 0.49 68.80 2.25 53
11 09/10/2019 12:25:13 -73.80, 167.97 111.16 09/10/2019 12:25:35 -73.83, 167.97 111.13 3.34 22
12 09/10/2019 13:14:55 74.53, -26.09 69.64 09/10/2019 13:16:00 74.53, -22.93 69.55 93.59 65
13 09/13/2019 07:10:02 73.78, 66.81 69.87 09/13/2019 07:09:16 73.77, 66.92 69.87 3.44 46
14 09/13/2019 07:59:28 -73.81,-125.62 110.08 09/13/2019 07:59:58 -73.80,-125.70 110.10 3.01 30




NCC Satellite Simultaneous Nadir Overpasses (SNOs) Prediction Service
